sat.trackr.live / text

‹ back to catalog

STARLINK-36134

NORAD 66863 · 2025-281R

PAYLOAD ACTIVE UNKNOWN

§ Identity

Operator
Country
US
Launch date
2025-12-02
Launch site
AFETR
Launch vehicle
Mass (kg)
RCS (m²)

Purposes: comms

External: N2YO · Heavens-Above · Gunter

§ Orbital elements

Epoch: 2026-05-24T18:06:49.037472Z

Period
94.27 min
Inclination
43.0039°
Eccentricity
0.0001974
Mean motion
15.27605665 rev/d
Perigee alt
481.6 km
Apogee alt
484.3 km
Semi-major
6,861.1 km
B*
8.2154e-4
RAAN
273.4651°
Arg perigee
270.2027°
Mean anomaly
89.8599°
Rev number
2,782

§ Raw data

STARLINK-361341 66863U 25281R   26144.75473423  .00022432  00000+0  82154-3 0  99942 66863  43.0039 273.4651 0001974 270.2027  89.8599 15.27605665 27829

JSON: /api/v1/satellites/66863 · /tle

For live sub-satellite position, see the globe view (requires WebGL).

§ Visibility from observer

Set your observer location to see the next 7 days of passes ≥ 10°. The values pass through the URL so the page stays shareable.

No JS? Fill the form by hand. The geolocation button needs JavaScript.